Location: Crayja
(6.2254°N, 10.6273°W)
Time: 10:20:12
(UTC+00:00)

ARIANE 5 R/B - Pass Details

Date: 17 February 2020
Orbit: 565 x 35561 km, 4.8° (Epoch: 29 March)

Event Time Altitude Azimuth Distance (km) Brightness Sun altitude
Exits shadow 04:48:02 40° 132° (SE) 1,114 4.1 -32.7°
Drops below altitude 10° 04:53:34 10° 95° (E) 3,665 7.4 -31.3°
Sets 04:59:42 0° 90° (E) 6,545 8.9 -29.8°
